RH
2 2 2 2 2 2 2 2 2 2 2 2 2 2 2 2 2 2 1 1 1 1 1 1 1 1 1 1 1 1 1 1 1 1 1 1 1 1 1 1 1 1 1 1 1 1 1 1 1 1 1 1 1 1 1 1 1 1 1 1 1 1 1 1 2 2 2 2 2 2 2 2 2 2 2 2 2 2 2 2 2 2 2 2 2 2 2 2 2 2 2 2 2 2 3 3 3 3 3 3 3 3 3
2 2 2 2 2 2 2 2 2 2 2 2 2 2 2 2 2 2 1 1 1 1 1 1 1 1 1 1 1 1 1 1 1 1 1 1 1 1 1 1 1 1 1 1 1 1 1 1 1 1 1 1 1 1 1 1 1 1 1 1 1 1 1 1 2 2 2 2 2 2 2 2 2 2 2 2 2 2 2 2 2 2 2 2 2 2 3 3 3 3 3 3 3 3 3 3 3 3 3 3 3 3 3
2 2 2 2 2 2 2 2 2 2 2 2 2 2 2 2 2 2 1 1 1 1 1 1 1 1 1 1 1 1 1 1 1 1 1 1 1 1 1 1 1 1 1 1 1 1 1 1 1 1 1 1 1 1 1 1 1 1 1 1 1 1 1 1 2 2 2 2 2 2 2 2 2 2 2 2 2 2 2 2 2 2 2 3 3 3 3 3 3 3 3 3 3 3 3 3 3 3 3 3 3 3 3
2 2 2 2 2 2 2 2 2 2 2 2 2 2 2 2 2 2 1 1 1 1 1 1 1 1 1 1 1 1 1 1 1 1 1 1 1 1 1 1 1 1 1 1 1 1 1 1 1 1 1 1 1 1 1 1 1 1 1 1 1 1 1 1 2 2 2 2 2 2 2 2 2 2 2 2 2 2 3 3 3 3 3 3 3 3 3 3 3 3 3 3 3 3 3 3 3 3 3 3 3 3 3
2 2 2 2 2 2 2 2 2 2 2 2 2 2 2 2 2 2 1 1 1 1 1 1 1 1 1 1 1 1 1 1 1 1 1 1 1 1 1 1 1 1 1 1 1 1 1 1 1 1 1 1 1 1 1 1 1 1 1 1 1 1 1 1 2 2 2 2 2 2 2 2 2 2 2 3 3 3 3 3 3 3 3 3 3 3 3 3 3 3 3 3 3 3 3 3 3 3 3 3 3 3 3
2 2 2 2 2 2 2 2 2 2 2 2 2 2 2 2 2 2 1 1 1 1 1 1 1 1 1 1 1 1 1 1 1 1 1 1 1 1 1 1 1 1 1 1 1 1 1 1 1 1 1 1 1 1 1 1 1 1 1 1 1 1 1 1 1 2 2 2 2 2 2 2 2 3 3 3 3 3 3 3 3 3 3 3 3 3 3 3 3 3 3 3 3 3 3 3 3 3 3 3 3 3 3
2 2 2 2 2 2 2 2 2 2 2 2 2 2 2 2 2 2 1 1 1 1 1 1 1 1 1 1 1 1 1 1 1 1 1 1 1 1 1 1 1 1 1 1 1 1 1 1 1 1 1 1 1 1 1 1 1 1 1 1 1 1 1 1 1 1 2 2 2 2 2 2 2 3 3 3 3 3 3 3 3 3 4 3 3 3 3 3 3 3 3 3 3 3 3 3 3 3 3 3 3 3 3
3 3 2 2 2 2 2 2 2 2 2 2 2 2 2 2 2 2 1 1 1 1 1 1 1 1 1 1 1 1 1 1 1 1 1 1 1 1 1 1 1 1 1 1 1 1 1 1 1 1 1 1 1 1 1 1 1 1 1 1 1 1 1 1 1 1 2 2 2 2 2 2 3 3 3 3 3 3 4 4 4 4 4 4 4 4 4 4 4 4 4 4 4 3 3 3 3 3 3 3 3 3 3
3 3 3 3 2 2 2 2 2 2 2 2 2 2 2 2 2 2 1 1 1 1 1 1 1 1 1 1 1 1 1 1 1 1 1 1 1 1 1 1 1 1 1 1 1 1 1 1 1 1 1 1 1 1 1 1 1 1 1 1 1 1 1 1 1 1 1 2 2 2 2 2 3 3 3 3 4 4 4 4 4 4 4 4 4 4 4 4 4 4 4 4 4 4 4 4 4 3 3 3 3 3 3
3 3 3 3 3 2 2 2 2 2 2 2 2 2 2 2 2 2 1 1 1 1 1 1 1 1 1 1 1 1 1 1 1 1 1 1 1 1 1 1 1 1 1 1 1 1 1 1 1 1 1 1 1 1 1 1 1 1 1 1 1 1 1 1 1 1 2 2 2 2 2 2 3 3 3 4 4 4 4 4 5 5 5 5 5 5 5 5 5 4 4 4 4 4 4 4 4 4 4 3 3 3 3
3 3 3 3 3 3 2 2 2 2 2 2 2 2 2 2 2 2 1 1 1 1 1 1 1 1 1 1 1 1 1 1 1 1 1 1 1 1 1 1 1 1 1 1 1 1 1 1 1 1 1 1 1 1 1 1 1 1 1 1 1 1 1 1 1 2 2 2 2 2 2 2 3 3 3 4 4 4 5 5 5 5 5 5 5 5 5 5 5 5 5 5 5 5 4 4 4 4 4 4 3 3 3
3 3 3 3 3 3 2 2 2 2 2 2 2 2 2 2 2 2 1 1 1 1 1 1 1 1 1 1 1 1 1 1 1 1 1 1 1 1 1 1 1 1 1 1 1 1 1 1 1 1 1 1 1 1 1 1 1 1 1 1 1 1 1 1 2 2 2 2 2 2 2 2 3 3 3 4 4 5 5 5 5 6 6 6 6 6 6 6 5 5 5 5 5 5 5 5 4 4 4 4 4 3 3
3 3 3 3 3 3 3 2 2 2 2 2 3 3 2 2 2 2 1 1 1 1 1 1 1 1 1 1 1 1 1 1 1 1 1 1 1 1 1 1 1 1 1 1 1 1 1 1 1 1 1 1 1 1 1 1 1 1 1 1 1 1 1 1 2 2 2 2 2 2 2 3 3 3 3 4 4 5 5 6 6 6 6 6 6 6 6 6 6 6 6 6 5 5 5 5 5 4 4 4 4 4 4
3 3 3 3 3 3 3 2 2 2 2 2 3 3 2 2 2 2 1 1 1 1 1 1 1 1 1 1 1 1 1 1 1 1 1 1 1 1 1 1 1 1 1 1 1 1 1 1 1 1 1 1 1 1 1 1 1 1 1 1 1 2 2 2 2 2 2 2 2 2 2 3 3 3 4 4 4 5 5 6 6 6 7 7 7 7 7 7 6 6 6 6 6 6 5 5 5 5 4 4 4 4 4
3 3 3 3 3 3 3 3 2 2 2 2 2 2 2 2 2 2 1 1 1 1 1 1 1 1 1 1 1 1 1 1 1 1 1 1 1 1 1 1 1 1 1 1 1 1 1 1 1 1 1 1 1 1 1 1 1 1 1 1 2 2 2 2 2 2 2 2 2 2 3 3 3 3 4 4 4 5 5 6 6 7 7 7 7 7 7 7 7 7 7 6 6 6 6 5 5 5 5 4 4 4 4
3 3 3 3 3 3 3 3 3 2 2 2 2 2 2 2 2 2 1 1 1 1 1 1 1 1 1 1 1 1 1 1 1 1 1 1 1 1 1 1 1 1 1 1 1 1 1 1 1 1 1 1 1 1 1 1 1 1 1 2 2 2 2 2 2 2 2 2 2 3 3 3 3 3 4 4 4 5 5 6 6 7 7 7 8 8 8 8 7 7 7 7 6 6 6 6 5 5 5 4 4 4 4
3 3 3 3 3 3 3 3 3 2 2 2 2 2 2 2 2 2 2 1 1 1 1 1 1 1 1 1 1 1 1 1 1 1 1 1 1 1 1 1 1 1 1 1 1 1 1 1 1 1 1 1 1 1 1 1 1 1 1 2 2 2 2 2 2 2 2 3 3 3 3 3 3 4 4 4 4 4 5 5 6 6 7 7 8 8 8 8 8 8 7 7 7 6 6 6 5 5 5 5 4 4 4
3 3 3 3 3 3 3 3 3 3 2 2 2 2 2 2 2 2 2 1 1 1 1 1 1 1 1 1 1 1 1 1 1 1 1 1 1 1 1 1 1 1 1 1 1 1 1 1 1 1 1 1 1 1 1 1 1 1 1 2 2 2 2 2 2 3 3 3 3 3 4 4 4 4 4 4 4 4 5 5 5 6 6 7 7 7 8 8 8 8 7 7 7 6 6 6 5 5 5 5 5 4 4
3 3 3 3 3 3 3 3 3 3 2 2 2 2 2 2 2 2 2 1 1 1 1 1 1 1 1 1 1 1 1 1 1 1 1 1 1 1 1 1 1 1 1 1 1 1 1 1 1 1 1 1 1 1 1 1 1 1 2 2 2 2 2 2 3 3 3 3 4 4 4 4 4 4 5 5 5 5 5 5 5 5 6 6 6 7 7 7 7 7 7 7 6 6 6 5 5 5 5 5 5 4 4
3 3 3 3 3 3 3 3 3 3 3 2 2 2 2 2 2 2 2 1 1 1 1 1 1 1 1 1 1 1 1 1 1 1 1 1 1 1 1 1 1 1 1 1 1 1 1 1 1 1 1 1 1 1 1 1 1 1 2 2 2 2 2 3 3 3 3 4 4 4 4 5 5 5 5 5 5 5 6 6 6 6 6 6 6 6 6 6 6 6 6 6 6 6 6 5 5 5 5 5 5 5 5
3 3 3 3 3 3 3 3 3 3 3 2 2 2 2 2 2 2 2 1 1 1 1 1 1 1 1 1 1 1 1 1 1 1 1 1 1 1 1 1 1 1 1 1 1 1 1 1 1 1 1 1 1 1 1 2 2 2 2 2 2 3 3 3 4 4 4 4 5 5 5 5 5 6 6 6 6 6 6 6 6 6 6 6 6 6 6 6 6 6 6 6 6 6 6 6 5 5 5 5 5 5 5
3 3 3 3 3 3 3 3 3 3 3 3 2 2 2 2 2 2 2 2 1 1 1 1 1 1 1 1 1 1 1 1 1 1 1 1 1 1 1 1 1 1 1 1 1 1 1 1 1 1 1 1 1 2 2 2 2 2 2 3 3 3 4 4 4 5 5 5 6 6 6 6 6 7 7 7 7 7 7 7 7 7 7 7 7 7 7 7 7 7 7 6 6 6 6 6 6 6 5 5 5 5 5
4 4 3 3 3 3 3 3 3 3 3 3 3 2 2 2 2 2 2 2 1 1 1 1 1 1 1 1 1 1 1 1 1 1 1 1 1 1 1 1 1 1 1 1 1 1 1 1 1 1 1 1 2 2 2 2 2 3 3 3 4 4 4 5 5 6 6 6 7 7 7 7 8 8 8 8 8 8 8 8 8 8 8 8 8 8 8 8 8 8 7 7 7 7 6 6 6 6 6 6 6 6 6
4 4 4 4 4 3 3 3 3 3 3 3 3 3 2 2 2 2 2 2 1 1 1 1 1 1 1 1 1 1 1 1 1 1 1 1 1 1 1 1 1 1 1 1 1 1 1 1 1 1 2 2 2 2 2 3 3 3 4 4 5 5 5 6 6 7 7 7 8 8 8 9 9 9 9 9 10 10 10 10 10 10 10 9 9 9 9 9 9 9 9 8 8 8 7 7 7 7 6 6 6 6 6
4 4 4 4 4 4 3 3 3 3 3 3 3 3 2 2 2 2 2 2 1 1 1 1 1 1 1 1 1 1 1 1 1 1 1 1 1 1 1 1 1 1 1 1 1 1 1 1 1 2 2 2 2 3 3 3 4 4 5 5 5 6 6 7 7 8 8 8 9 9 9 9 10 10 10 10 10 10 10 10 10 10 10 10 10 10 10 10 10 10 10 9 9 9 9 8 8 8 7 7 7 7 7
4 4 4 4 4 4 4 3 3 3 3 3 3 3 2 2 2 2 2 2 2 1 1 1 1 1 1 1 1 1 1 1 1 1 1 1 1 1 1 1 1 1 1 1 1 1 1 1 2 2 2 2 3 3 3 4 4 5 5 6 6 7 7 8 8 8 9 9 9 9 10 10 10 10 10 10 10 10 10 10 11 11 11 11 11 11 11 10 10 10 10 10 10 10 9 9 9 9 8 8 8 7 7
4 4 4 4 4 4 4 4 3 3 3 3 3 3 3 2 2 2 2 2 2 1 1 1 1 1 1 1 1 1 1 1 1 1 1 1 1 1 1 1 1 1 1 1 1 1 2 2 2 2 2 3 3 4 4 5 5 6 6 7 7 7 8 8 8 9 9 9 10 10 10 10 10 10 10 10 10 10 10 10 10 10 10 10 10 10 10 10 10 10 10 10 10 10 10 9 9 9 8 8 8 8 7
4 4 4 4 4 4 4 4 4 3 3 3 3 3 3 2 2 2 2 2 2 1 1 1 1 1 1 1 1 1 1 1 1 1 1 1 1 1 1 1 1 1 1 1 2 2 2 2 2 2 3 3 4 4 5 5 6 6 7 7 7 8 8 9 9 9 9 10 10 10 10 10 10 10 10 10 10 10 10 10 10 10 10 10 10 10 10 10 10 10 9 9 9 9 9 8 8 8 8 8 7 7 7
4 4 4 4 4 4 4 4 4 4 3 3 3 3 3 3 2 2 2 2 2 1 1 1 1 1 1 1 1 1 1 1 1 1 1 1 1 1 1 1 1 1 2 2 2 2 2 2 2 3 3 4 4 5 5 6 6 7 7 8 8 8 9 9 9 10 10 10 10 10 10 10 9 9 9 8 8 8 8 9 9 9 9 9 9 9 9 9 9 8 8 8 8 7 7 7 7 6 6 6 6 6 6
4 4 4 4 4 4 4 4 4 4 4 3 3 3 3 3 2 2 2 2 2 1 1 1 1 1 1 1 1 1 1 1 1 1 1 1 1 1 2 2 2 2 2 2 2 2 2 3 3 3 4 4 5 5 6 6 7 7 7 8 8 9 9 9 10 10 10 10 10 10 9 9 9 8 8 8 8 8 8 8 8 8 8 8 8 8 8 7 7 7 6 6 6 5 5 5 5 5 4 4 4 4 4
4 4 4 4 4 4 4 4 4 4 4 3 3 3 3 3 3 2 2 2 2 2 1 1 1 1 1 1 1 1 1 1 1 1 1 2 2 2 2 2 2 2 2 2 2 2 3 3 3 4 4 5 5 6 6 7 7 7 8 8 9 9 9 10 10 10 10 10 10 10 9 9 8 7 7 7 7 7 7 7 7 7 7 7 7 6 6 6 6 5 5 5 4 4 4 4 3 3 3 3 3 3 3
4 4 4 4 4 4 4 4 4 4 4 4 3 3 3 3 3 2 2 2 2 2 1 1 1 1 1 1 1 1 1 2 2 2 2 2 2 2 2 2 2 2 2 2 3 3 3 3 4 4 5 5 6 6 6 7 7 8 8 9 9 9 10 10 10 10 10 10 10 9 9 8 8 7 7 7 7 7 7 7 7 7 6 6 6 6 5 5 5 4 4 4 4 4 3 3 3 3 3 3 3 3 3
4 4 4 4 4 4 4 4 4 4 4 4 3 3 3 3 3 2 2 2 2 2 1 1 1 1 1 1 1 2 2 2 2 2 2 2 2 2 2 2 3 3 3 3 3 3 3 4 4 5 5 5 6 6 7 7 8 8 9 9 9 9 10 10 10 10 10 10 10 9 9 8 7 7 7 7 7 7 7 7 6 6 6 5 5 5 5 4 4 4 4 4 4 3 3 3 3 3 3 3 3 3 2
4 4 4 4 4 4 4 4 4 4 4 4 3 3 3 3 3 3 2 2 2 2 2 1 1 1 1 2 2 2 2 2 2 2 2 2 2 2 3 3 3 3 3 3 4 4 4 4 5 5 5 6 6 7 7 8 8 8 9 9 9 9 9 10 10 10 10 10 9 9 8 7 7 7 7 7 7 7 6 6 6 5 5 5 5 4 4 4 4 4 4 3 3 3 3 3 3 3 3 3 3 2 2
4 4 4 4 4 4 4 4 4 4 4 3 3 3 3 3 3 3 2 2 2 2 2 2 2 2 2 2 2 2 2 2 2 2 3 3 3 3 3 3 3 4 4 4 4 4 5 5 5 6 6 6 7 7 7 8 8 8 9 9 9 9 9 9 10 10 10 9 9 8 8 7 7 6 6 7 7 6 6 6 5 5 5 4 4 4 4 4 4 3 3 3 3 3 3 3 3 2 2 2 2 2 2
4 4 4 4 4 4 4 4 4 4 4 3 3 3 3 3 3 3 2 2 2 2 2 2 2 2 2 2 2 2 2 3 3 3 3 3 3 3 4 4 4 4 4 5 5 5 5 6 6 6 6 7 7 7 8 8 8 8 8 8 9 9 9 9 9 9 9 9 8 8 7 7 6 6 6 6 6 6 6 5 5 5 4 4 4 4 4 3 3 3 3 3 3 3 2 2 2 2 2 2 2 2 2
5 4 4 4 4 4 4 4 4 4 4 3 3 3 3 3 3 3 2 2 2 2 2 2 2 2 2 2 3 3 3 3 3 4 4 4 4 4 4 4 4 5 5 5 5 6 6 6 6 6 7 7 7 8 8 8 8 8 8 8 8 8 8 9 9 9 9 8 8 7 7 6 6 6 6 6 6 6 5 5 4 4 4 4 4 3 3 3 3 3 3 3 2 2 2 2 2 2 2 2 2 2 2
5 5 4 4 4 4 4 4 4 4 4 4 3 3 3 3 3 3 2 2 2 2 2 2 2 2 3 3 3 3 3 4 4 4 5 5 5 5 5 5 5 5 6 6 6 6 6 6 7 7 7 7 8 8 8 8 8 8 8 8 8 8 8 8 8 8 8 8 7 7 6 6 6 6 6 6 6 5 5 4 4 4 4 3 3 3 3 3 3 3 3 3 2 2 2 2 2 2 2 2 2 2 2
5 5 5 5 4 4 4 4 4 4 4 4 3 3 3 3 3 3 3 2 2 2 3 3 3 3 3 3 4 4 4 5 5 5 5 5 5 5 6 6 6 6 6 6 6 7 7 7 7 7 7 7 8 8 8 8 8 7 7 7 7 7 7 7 7 7 7 7 7 7 6 6 6 6 6 6 5 5 4 4 4 3 3 3 3 3 3 3 3 3 3 2 2 2 2 2 2 2 2 2 2 2 2
5 5 5 5 5 5 5 4 4 4 4 4 3 3 3 3 3 3 3 3 3 3 3 3 3 3 4 4 4 5 5 6 6 6 6 6 6 6 6 7 7 7 7 7 7 7 7 7 7 7 7 8 8 8 8 7 7 7 6 6 6 6 6 6 6 7 7 7 7 6 6 6 6 6 6 5 5 4 4 4 3 3 3 3 3 3 3 3 3 3 2 2 2 2 2 2 2 2 2 2 2 2 2
5 5 5 5 5 5 5 5 5 4 4 4 4 3 3 3 3 3 3 3 3 3 3 4 4 4 4 5 5 6 6 7 7 7 7 7 7 7 7 8 8 8 8 8 8 7 7 7 7 8 8 8 8 8 7 7 7 6 6 5 5 6 6 6 6 6 6 6 6 6 6 6 6 5 5 5 4 4 4 3 3 3 3 3 3 3 3 3 2 2 2 2 2 2 2 2 2 2 2 2 2 2 2
6 6 6 6 6 5 5 5 5 5 4 4 4 3 3 3 3 3 3 3 3 4 4 4 5 5 5 6 6 7 7 8 8 8 8 8 8 8 8 9 9 9 8 8 8 8 8 8 8 8 8 8 8 8 7 7 6 6 5 5 5 6 6 6 6 6 6 6 6 6 6 6 5 5 5 4 4 4 3 3 3 3 3 3 3 3 3 2 2 2 2 2 2 2 2 2 2 2 2 2 2 2 2
6 6 6 6 6 6 5 5 5 5 4 4 4 3 3 3 3 3 3 4 4 4 4 5 6 6 6 7 7 8 8 9 9 9 9 9 9 9 9 10 10 9 9 9 8 8 8 8 8 8 8 8 8 8 7 7 6 5 5 5 6 6 6 6 6 6 6 6 6 6 6 5 5 4 4 4 4 3 3 3 3 3 3 3 3 2 2 2 2 2 2 2 2 2 2 2 2 2 2 2 2 2 2
6 6 6 6 6 6 6 5 5 5 5 4 4 4 3 3 3 4 4 4 4 5 5 6 7 7 8 8 9 9 9 10 10 10 10 10 10 10 10 10 10 10 10 9 9 9 9 8 8 8 8 8 8 8 7 6 6 5 5 6 6 6 6 6 6 6 6 6 6 5 5 5 4 4 4 4 3 3 3 3 3 3 3 3 2 2 2 2 2 2 2 2 2 2 2 2 2 2 2 2 2 2 2
7 7 7 7 6 6 6 6 5 5 5 4 4 4 3 3 4 4 4 5 5 6 6 7 8 8 9 9 10 10 10 11 11 11 11 11 11 12 11 11 11 10 10 10 9 9 9 9 9 9 8 8 8 8 7 6 6 6 6 6 6 6 6 6 6 6 6 6 5 5 5 4 4 4 4 4 3 3 3 3 3 3 2 2 2 2 2 2 2 2 2 2 2 2 2 2 2 2 2 2 2 2 2
7 7 7 7 7 6 6 6 5 5 5 4 4 4 4 4 4 4 5 5 6 6 7 8 9 9 10 10 11 11 11 11 12 12 12 12 12 12 12 12 11 11 11 10 10 10 9 9 9 9 9 9 8 8 7 6 6 6 6 6 6 6 6 6 6 6 6 5 5 5 5 4 4 4 4 3 3 3 3 3 3 2 2 2 2 2 2 2 2 2 2 2 2 2 2 2 2 2 2 2 2 2 2
8 8 7 7 7 7 6 6 6 5 5 5 4 4 4 4 5 5 5 6 7 7 8 9 10 11 11 11 12 12 12 12 13 13 13 13 13 13 13 12 11 11 11 11 10 10 10 9 9 9 9 9 8 8 7 6 6 6 6 6 6 6 6 6 6 6 5 5 5 5 4 4 4 4 4 3 3 3 3 3 3 2 2 2 2 2 2 2 2 2 2 2 2 2 2 2 2 2 2 2 3 3 3
8 8 8 8 7 7 7 6 6 5 5 5 4 4 4 5 5 6 6 7 8 9 10 10 11 12 13 13 13 13 13 13 14 14 14 14 14 14 13 12 12 12 11 11 11 10 10 10 9 9 9 9 8 8 7 6 6 6 7 7 6 6 6 6 6 5 5 5 5 5 5 4 4 4 4 3 3 3 3 3 3 2 2 2 2 2 2 2 2 2 2 2 2 3 3 3 3 3 3 3 3 3 3
9 8 8 8 7 7 7 6 6 6 5 5 5 5 5 6 6 7 7 8 9 10 11 12 12 13 14 14 14 14 14 14 14 14 15 14 14 14 13 13 13 12 12 12 12 11 10 10 10 10 9 9 8 7 7 6 6 6 7 6 6 6 6 6 5 5 5 5 5 5 4 4 4 4 4 3 3 3 3 3 3 2 2 2 2 2 2 3 3 3 3 3 3 3 3 3 3 3 3 3 3 3 3
9 9 8 8 8 7 7 7 6 6 6 6 6 6 6 6 7 7 8 9 10 11 12 13 13 14 15 15 15 15 15 15 15 15 16 15 14 14 13 13 13 13 13 13 12 11 11 10 10 9 9 9 8 7 6 6 6 6 7 6 6 6 6 5 5 5 5 5 5 5 4 4 4 4 4 3 3 3 3 3 3 3 2 2 2 2 2 2 3 3 3 3 3 3 3 3 3 3 3 4 3 3 4
9 9 9 8 8 8 7 7 7 7 6 6 7 7 7 7 8 8 9 10 11 12 14 14 15 15 15 15 16 16 15 15 16 16 16 16 15 15 15 14 14 13 13 13 13 12 11 10 10 9 9 8 8 7 6 6 6 6 6 6 6 6 6 5 5 5 5 5 5 4 4 4 4 4 4 3 3 3 3 3 3 3 3 2 2 2 2 2 3 3 3 3 3 3 3 4 4 4 4 4 4 4 4
9 9 9 8 8 8 8 8 8 7 7 7 7 8 8 8 9 10 10 11 13 14 15 15 16 16 16 16 16 16 16 16 16 17 16 16 16 16 16 16 15 15 13 13 13 12 11 10 9 8 8 8 7 7 6 6 6 6 6 6 6 6 6 5 5 5 5 5 5 4 4 4 4 4 3 3 3 3 3 3 3 3 3 2 2 2 3 3 3 3 3 3 3 3 3 4 4 4 4 4 5 5 5
10 9 9 9 9 9 9 9 8 8 8 8 9 9 9 9 10 11 12 13 14 15 15 16 16 16 16 16 16 17 17 17 17 17 17 17 17 17 17 17 17 16 14 14 14 13 12 10 9 8 8 7 7 7 6 6 6 6 7 7 6 6 6 6 5 5 5 5 5 5 4 4 4 4 3 3 3 3 3 3 3 3 2 2 2 3 3 3 3 3 3 3 3 3 4 4 4 4 5 5 5 5 5
10 10 10 9 9 9 10 9 9 10 10 10 10 10 10 11 11 12 14 15 15 16 17 17 17 17 16 16 17 17 17 17 17 18 18 18 18 18 18 18 17 17 16 16 16 15 13 11 10 9 7 7 7 7 6 6 6 7 7 7 7 6 6 6 6 6 5 5 5 5 5 4 4 4 3 3 3 3 3 3 3 2 2 2 3 3 3 3 3 4 4 4 4 4 4 4 4 5 5 5 6 6 6
10 10 10 10 10 10 10 11 11 11 11 11 11 12 12 12 13 14 15 16 17 17 17 18 18 18 17 17 17 17 18 18 18 18 18 18 19 19 20 19 18 18 17 17 16 16 14 12 10 9 8 7 7 6 6 6 6 7 7 7 7 7 6 6 6 6 6 5 5 5 5 4 4 4 3 3 3 3 3 3 3 2 2 3 3 3 3 4 4 4 4 5 5 5 5 5 5 6 6 6 7 7 7
11 11 11 11 12 12 12 12 12 12 12 13 13 13 14 14 15 16 17 17 17 18 18 18 18 18 17 17 17 18 18 18 18 19 19 19 19 20 20 20 20 19 18 18 17 16 15 13 12 10 8 7 7 6 6 6 6 7 7 7 7 7 7 7 6 6 6 6 5 5 5 4 4 4 4 3 3 3 3 3 3 3 3 3 3 4 4 4 4 5 5 6 6 6 6 7 7 7 7 7 8 8 8
12 13 13 13 13 14 14 14 14 14 14 14 15 15 16 16 17 18 18 18 18 18 18 18 18 17 17 18 18 18 18 19 19 19 19 20 20 21 21 21 21 21 20 19 18 16 15 14 13 11 9 7 6 6 6 6 6 7 7 7 7 7 7 7 7 6 6 6 6 5 5 5 4 4 3 3 3 3 3 3 3 3 3 4 4 4 5 5 6 6 6 7 7 7 8 8 8 8 8 9 9 9 10
14 14 15 15 15 15 16 16 16 16 16 16 16 17 18 18 19 19 19 19 19 18 17 17 17 17 17 18 18 19 19 19 20 20 20 20 21 22 22 22 21 21 20 19 18 17 16 15 14 13 10 8 7 6 6 6 7 7 7 7 7 7 7 7 7 7 7 6 6 5 5 4 4 4 3 3 3 3 3 3 4 4 4 5 5 5 6 6 7 8 8 8 8 8 9 9 9 9 9 10 10 10 10
16 16 17 17 17 18 18 18 18 18 18 18 18 19 19 20 20 20 20 19 18 18 17 17 17 17 18 18 18 19 20 20 20 20 21 21 22 22 22 22 22 21 20 19 18 17 17 16 15 13 12 10 8 7 6 6 7 7 7 7 7 7 7 7 7 7 7 6 6 5 5 4 4 4 3 3 3 3 4 4 4 5 5 6 6 7 7 8 9 9 10 10 10 10 10 10 10 10 10 10 11 11 12
18 19 19 19 19 20 20 20 20 20 20 20 20 21 21 21 21 21 20 19 18 18 17 17 17 17 18 18 19 20 20 21 21 21 22 23 23 23 23 23 22 21 20 19 18 18 17 16 15 14 13 12 10 9 7 7 7 7 7 7 7 7 7 7 7 7 7 6 6 5 5 4 4 4 3 3 4 4 4 5 5 6 6 7 7 8 9 10 11 11 11 11 11 10 10 10 10 10 11 11 12 13 14
21 21 21 22 22 22 22 22 22 22 22 22 22 22 22 22 22 21 20 19 18 18 17 17 17 18 18 19 19 20 21 21 22 23 23 24 24 24 23 23 22 21 20 19 18 18 17 16 15 14 13 12 11 10 9 8 7 7 7 7 7 7 7 7 7 7 7 6 5 5 5 4 4 4 3 4 4 4 5 6 7 7 7 8 9 10 11 12 12 12 12 12 11 11 11 11 11 11 12 13 14 15 16
Wind_Speed
32 31 31 31 31 31 31 31 31 30 30 30 30 30 30 29 29 29 28 28 27 27 27 27 27 26 26 26 26 26 27 27 27 27 27 27 27 27 27 27 28 28 28 28 28 28 29 29 30 30 30 31 32 32 33 33 34 35 35 36 36 37 37 38 38 39 39 39 40 40 40 40 40 40 40 40 40 41 41 40 40 39 39 39 38 38 38 38 38 38 37 37 37 36 36 35 35 34 34 34 33 33 33
32 32 31 31 31 31 31 31 31 31 31 30 30 30 30 30 29 29 28 28 27 27 27 27 27 27 26 26 26 26 26 26 27 27 27 27 26 26 27 27 28 28 28 28 28 28 29 29 30 30 31 31 32 33 33 34 35 36 36 37 38 38 39 39 39 40 40 41 41 41 41 41 41 41 41 41 41 41 41 41 41 41 40 40 40 40 39 39 39 39 39 38 38 37 37 36 36 36 36 35 35 34 34
32 32 32 31 31 31 31 31 31 31 31 31 31 31 30 30 30 29 28 28 27 27 27 27 27 27 27 26 26 26 26 26 26 26 26 26 26 26 27 27 28 28 28 28 28 29 29 30 30 31 31 32 33 33 34 35 36 36 37 38 39 39 40 40 41 41 42 42 42 42 42 42 42 42 42 42 42 42 42 42 42 42 41 41 41 41 41 41 41 40 40 39 39 39 38 38 38 37 37 37 36 36 35
32 32 32 32 32 32 31 31 31 31 31 31 31 31 31 30 30 29 29 28 28 27 27 27 27 27 27 26 26 26 26 26 26 26 26 26 26 26 26 27 27 28 28 28 28 28 29 30 30 31 32 32 33 34 34 35 36 37 38 39 40 40 41 42 42 42 43 43 44 44 44 44 44 43 43 43 43 43 43 43 43 43 43 42 42 42 42 42 42 41 41 41 40 40 40 39 39 39 38 38 38 37 37
32 32 32 32 32 32 32 32 31 31 31 31 31 31 31 31 30 30 29 28 28 28 28 28 27 27 27 27 26 26 26 26 26 26 26 26 26 26 26 27 27 28 28 28 28 28 29 30 31 31 32 33 34 34 35 36 37 38 38 39 40 41 42 43 43 44 44 44 45 45 45 45 45 45 45 44 44 45 45 45 44 44 44 44 43 43 43 43 43 43 42 42 42 41 41 41 40 40 40 40 39 39 39
33 33 33 32 32 32 32 32 32 32 32 32 32 32 31 31 31 30 29 29 28 28 28 28 28 27 27 27 27 26 26 26 26 26 26 26 26 26 26 26 27 27 28 28 28 29 29 30 31 32 33 33 34 35 36 37 37 38 39 40 41 42 43 43 44 45 45 46 46 46 47 47 47 46 46 46 46 46 46 46 45 45 45 45 45 44 44 44 44 44 44 43 43 43 42 42 42 41 41 41 41 40 40
33 33 33 33 33 32 32 32 32 32 32 32 32 32 32 31 31 30 30 29 29 29 28 28 28 28 28 27 27 27 26 26 26 26 26 26 25 25 26 26 27 27 28 28 29 29 30 30 31 32 33 34 35 36 37 38 38 39 40 41 42 43 43 44 45 46 46 47 47 47 48 48 48 48 47 47 47 47 46 46 46 46 46 46 46 46 45 45 45 45 45 44 44 44 43 43 43 43 42 42 42 42 41
34 33 33 33 33 33 32 32 32 32 32 32 32 32 32 32 31 31 30 30 29 29 29 29 29 28 28 28 27 27 27 27 26 26 26 26 25 26 26 26 27 27 28 28 29 29 30 31 31 32 33 34 36 37 38 38 39 40 41 42 43 43 44 45 46 46 47 47 48 48 49 49 49 49 48 48 48 48 47 47 47 47 47 47 47 46 46 46 46 46 46 45 45 45 44 44 44 44 43 43 43 43 43
34 34 34 33 33 33 32 32 32 32 32 32 32 32 32 32 32 31 31 30 30 30 30 29 29 29 29 28 28 28 27 27 27 26 26 26 26 26 26 26 27 27 28 28 29 30 30 31 32 33 34 35 36 37 38 39 40 41 42 42 43 44 45 46 47 47 48 48 49 49 49 50 50 50 50 49 49 49 48 48 48 48 48 48 48 47 47 47 47 47 46 46 46 46 45 45 45 44 44 44 44 44 43
34 34 34 34 33 33 33 32 32 32 32 32 32 32 32 32 32 32 31 31 31 30 30 30 30 30 29 29 29 28 28 27 27 27 26 26 26 26 26 27 27 27 28 28 29 30 30 31 32 33 34 35 36 37 38 39 40 41 42 43 43 44 45 46 47 48 48 49 49 50 50 50 50 50 50 50 50 50 49 49 49 49 49 49 48 48 48 48 47 47 47 47 47 46 46 46 45 45 45 45 44 44 44
34 34 34 34 33 33 33 33 32 32 32 32 32 32 33 33 32 32 32 32 31 31 31 31 30 30 30 29 29 29 28 28 27 27 27 27 27 27 27 27 27 28 28 29 29 30 31 32 33 33 34 35 36 37 38 39 40 40 41 42 43 44 45 46 47 48 49 49 50 50 51 51 51 51 51 51 50 50 50 50 50 50 49 49 49 49 49 48 48 48 48 47 47 47 47 46 46 46 45 45 45 45 45
35 35 34 34 34 33 33 33 33 32 32 32 33 33 33 33 33 33 32 32 32 32 32 31 31 31 30 30 30 29 29 28 28 28 28 28 28 28 28 28 28 28 28 29 30 30 31 32 33 34 35 35 36 37 38 38 39 40 41 41 42 43 44 45 46 47 48 49 50 50 51 51 51 51 51 51 51 51 51 50 50 50 50 50 50 49 49 49 49 49 48 48 48 48 47 47 47 46 46 46 46 45 45
35 35 35 34 34 34 33 33 33 33 33 33 33 33 33 33 33 33 33 33 33 32 32 32 32 31 31 31 30 30 29 29 29 28 28 28 28 28 28 28 28 28 29 29 30 31 32 33 33 34 35 36 36 37 37 38 38 39 40 40 41 42 43 44 45 46 47 48 49 50 51 51 51 52 51 51 51 51 51 51 51 50 50 50 50 50 50 50 49 49 49 49 48 48 48 48 47 47 47 47 46 46 46
35 35 35 35 34 34 34 33 33 33 33 33 33 33 33 33 33 33 33 33 33 33 33 33 32 32 31 31 31 30 30 30 29 29 29 29 29 29 29 28 29 29 29 30 31 32 32 33 34 34 35 35 36 36 37 37 38 38 39 39 40 40 41 42 43 44 45 46 47 49 50 51 51 52 52 52 52 52 51 51 51 51 51 51 50 50 50 50 50 50 50 49 49 49 49 48 48 48 48 48 47 47 46
36 36 35 35 35 35 34 34 34 34 34 34 33 34 34 33 33 33 33 34 34 34 33 33 33 32 32 32 31 31 31 30 30 30 30 30 29 29 29 29 29 29 30 31 31 32 33 33 34 34 35 35 35 36 36 36 37 37 37 38 38 39 39 40 41 42 43 44 45 47 48 49 50 51 52 52 52 52 52 52 52 51 51 51 51 51 51 50 50 50 50 50 50 50 49 49 49 49 49 48 48 48 47
36 36 36 36 35 35 35 34 34 34 34 34 34 34 34 34 34 34 34 34 34 34 34 33 33 33 33 32 32 32 31 31 31 31 30 30 30 30 30 30 30 30 31 31 32 32 33 33 34 34 34 35 35 35 35 36 36 36 36 37 37 37 38 38 39 39 40 41 43 44 45 47 48 50 51 52 52 52 52 52 52 52 52 52 52 51 51 51 51 51 51 51 51 50 50 50 50 50 49 49 49 49 48
37 37 36 36 36 36 35 35 35 35 35 34 34 34 34 34 34 34 34 34 34 34 34 34 34 33 33 33 32 32 32 32 32 31 31 31 30 30 30 30 30 31 31 32 32 32 33 33 34 34 34 34 34 35 35 35 35 35 35 35 36 36 36 36 37 37 38 39 40 41 42 44 45 47 49 50 51 52 52 53 53 53 53 53 52 52 52 52 52 52 51 52 52 51 51 51 51 50 50 50 50 49 49
37 37 37 37 36 36 36 36 35 35 35 35 35 35 35 34 34 34 34 35 35 35 35 34 34 34 33 33 33 33 33 33 32 32 32 31 31 31 31 31 31 31 31 32 32 33 33 33 33 34 34 34 34 34 35 35 35 35 35 35 35 35 35 35 35 35 36 36 37 38 39 40 42 43 45 47 48 50 51 52 52 53 53 53 53 53 53 53 53 53 52 53 52 52 52 52 52 51 51 51 50 50 49
37 37 37 37 36 36 36 36 36 36 35 35 35 35 35 35 35 34 35 35 35 35 35 35 34 34 34 34 34 34 33 33 33 32 32 32 31 31 31 31 31 31 32 32 32 33 33 33 33 34 34 34 34 34 34 34 34 34 34 34 34 34 34 34 34 34 34 34 35 35 36 37 38 39 41 42 44 46 47 48 49 50 51 52 52 53 53 53 53 53 53 53 53 53 53 52 52 52 51 51 50 50 50
37 37 37 37 36 36 36 36 36 36 36 36 36 35 35 35 35 35 35 35 35 35 35 35 35 34 34 34 34 34 34 34 33 33 33 32 32 32 32 31 31 32 32 32 33 33 33 33 33 33 34 34 34 34 34 34 34 34 34 34 33 33 33 33 33 33 33 33 33 34 34 35 35 36 37 38 40 41 42 44 45 46 47 48 49 50 51 51 52 52 53 53 53 53 52 52 52 51 51 50 50 50 49
37 37 37 36 36 36 36 36 36 36 36 36 36 36 35 35 35 35 35 35 35 35 35 35 35 35 35 35 35 34 34 34 34 33 33 33 33 32 32 32 32 32 32 32 33 33 33 33 33 33 33 33 34 34 34 34 34 34 34 34 33 33 33 32 32 32 32 33 33 33 33 34 34 35 35 36 37 38 39 40 41 42 43 44 45 46 47 48 49 50 50 51 51 51 51 51 50 50 50 50 49 49 49
37 37 36 36 36 36 36 36 36 36 36 36 36 36 36 35 35 35 35 35 35 36 36 35 35 35 35 35 35 35 35 34 34 34 34 33 33 33 32 32 32 32 32 33 33 33 33 33 33 33 33 33 33 33 33 33 34 34 34 34 33 33 33 32 32 32 32 32 33 33 33 33 34 34 35 36 36 37 38 39 39 40 41 42 42 43 44 45 45 46 47 47 48 48 48 49 49 49 49 48 48 48 48
37 36 36 36 36 36 35 35 35 35 35 35 36 36 36 36 35 35 35 35 36 36 36 36 35 35 35 35 35 35 35 35 34 34 34 34 33 33 33 32 32 32 32 33 33 33 33 33 33 33 33 33 33 33 33 33 33 33 33 33 33 33 33 32 32 32 32 32 33 33 33 34 34 34 35 36 36 37 37 38 39 39 40 41 41 42 42 43 43 44 44 45 45 46 46 46 47 47 47 47 47 47 47
37 37 36 36 36 36 35 35 35 35 35 35 35 35 35 35 35 35 35 35 36 36 36 36 36 36 36 35 35 35 35 35 35 34 34 34 34 33 33 33 32 32 33 33 33 33 33 32 32 32 32 32 32 32 32 32 32 33 33 33 33 33 33 32 32 32 32 33 33 33 34 34 34 35 35 36 36 37 37 38 39 39 40 40 41 41 42 42 43 43 43 44 44 44 44 45 45 45 45 45 45 45 45
38 37 37 36 36 36 35 35 35 35 35 35 35 35 35 35 35 35 35 36 36 36 36 36 36 36 36 36 36 35 35 35 35 35 34 34 34 34 33 33 33 33 33 33 33 32 32 32 32 32 32 32 32 32 32 32 32 32 32 32 32 32 32 32 32 33 33 33 33 34 34 35 35 36 36 36 37 37 38 38 39 39 40 41 41 42 42 42 43 43 43 43 43 43 43 44 44 44 44 44 44 44 44
38 38 37 37 36 36 36 35 35 35 35 35 35 35 35 35 35 35 35 36 36 36 36 36 36 36 36 36 36 35 35 35 35 35 34 34 34 34 33 33 33 33 32 32 32 32 32 32 32 32 31 31 31 31 32 32 32 32 32 32 32 33 33 33 33 33 33 34 34 34 35 36 36 37 37 38 38 38 39 39 40 40 41 41 42 42 42 43 43 43 43 43 43 43 43 43 43 43 43 43 43 44 44
39 39 38 37 37 37 36 36 35 35 35 35 35 35 35 35 35 35 35 36 36 36 36 36 36 36 36 36 36 36 35 35 35 35 34 34 34 34 34 33 33 33 32 32 32 32 32 32 31 31 31 31 31 31 31 31 31 32 32 32 33 33 33 33 34 34 34 34 35 35 36 36 37 37 38 38 39 39 40 40 40 41 41 42 42 42 43 43 43 44 44 44 44 44 44 43 43 43 43 43 43 43 43
40 39 39 38 38 37 37 36 36 36 35 35 35 35 35 35 35 35 35 35 36 36 36 36 36 36 36 36 36 36 35 35 35 35 34 34 34 34 34 33 33 32 32 32 32 32 31 31 31 31 31 31 31 31 31 31 31 32 32 33 33 34 34 34 34 35 35 35 35 36 36 37 37 38 38 39 39 39 40 40 41 41 41 42 42 42 43 43 43 43 44 44 43 43 43 43 43 43 43 43 43 43 43
40 40 39 39 38 38 37 37 37 36 36 36 35 35 35 35 35 35 35 35 36 36 36 36 37 36 36 36 36 36 35 35 35 35 34 34 34 34 34 33 33 32 32 32 32 31 31 31 31 31 31 31 31 31 31 31 32 32 33 33 34 34 35 35 35 36 36 36 36 36 36 37 37 38 38 38 39 39 39 40 40 40 40 41 41 41 42 42 42 42 42 42 42 42 42 42 42 42 41 41 41 42 42
41 40 40 39 39 38 38 37 37 37 36 36 36 36 35 35 35 35 35 35 36 36 36 37 37 36 36 36 36 36 35 35 35 34 34 34 34 34 34 33 33 32 32 31 31 31 31 31 31 31 31 31 31 31 31 32 32 33 33 34 35 35 36 36 36 36 36 36 36 37 37 37 37 38 38 38 38 38 38 39 39 39 39 39 39 40 40 40 40 40 40 40 40 40 40 40 40 40 40 40 40 40 40
41 41 40 39 39 39 38 38 38 37 37 37 36 36 36 35 35 35 35 35 36 36 36 37 37 36 36 36 36 36 35 35 34 34 34 34 34 34 34 33 33 32 32 31 31 31 31 31 31 31 31 31 31 31 32 32 33 33 34 35 36 36 37 37 37 37 37 37 37 37 37 37 37 38 38 38 38 37 37 37 37 37 37 37 38 38 38 38 38 38 38 38 38 38 39 39 39 39 39 39 39 39 39
42 41 40 40 39 39 39 38 38 38 37 37 37 36 36 35 35 35 35 35 36 36 36 37 37 36 36 36 36 36 35 35 34 34 34 34 34 34 34 33 32 32 31 31 31 31 31 31 31 31 31 31 31 32 32 33 33 34 35 36 36 37 38 38 38 38 38 37 37 37 37 37 37 37 37 37 37 36 36 36 36 36 36 36 36 36 36 36 36 36 36 37 37 37 38 38 38 38 38 38 39 39 39
42 41 41 40 40 39 39 39 38 38 38 38 37 37 36 36 35 35 35 36 36 36 36 37 36 36 36 36 36 35 35 35 34 34 33 33 33 33 33 33 32 31 31 31 31 31 31 31 31 31 31 31 32 32 33 33 34 35 36 37 37 38 38 39 39 38 38 37 37 37 37 37 37 37 36 36 36 35 35 35 35 35 35 35 35 35 35 35 35 35 36 36 36 37 37 37 37 38 38 38 38 39 39
43 42 41 41 40 40 39 39 39 39 38 38 37 37 37 36 36 36 36 36 36 36 37 37 36 36 36 36 35 35 35 34 34 33 33 33 33 33 33 32 31 31 31 30 31 31 31 31 31 31 31 31 32 32 33 34 35 36 36 37 38 38 39 39 39 38 38 37 37 36 36 36 36 36 36 35 35 34 34 34 34 34 34 34 34 34 34 35 35 35 35 35 35 36 36 36 37 37 38 38 39 39 40
43 42 42 41 41 40 40 39 39 39 38 38 38 37 37 37 36 36 36 36 36 36 36 36 36 36 36 36 35 35 35 34 34 33 33 33 33 33 32 32 31 31 30 30 30 30 31 31 31 31 31 32 32 33 34 34 35 36 37 38 38 39 39 39 38 38 37 37 36 36 36 36 35 35 34 34 33 33 33 33 33 33 33 33 33 34 34 34 34 34 34 34 34 34 35 35 36 36 37 38 39 39 40
43 43 42 41 41 41 40 40 39 39 39 38 38 37 37 37 36 36 36 36 36 36 36 36 36 36 36 35 35 35 34 34 33 33 33 32 33 32 32 31 31 30 30 30 30 31 31 31 31 31 31 32 32 33 34 35 36 36 37 38 38 38 38 38 38 37 36 36 36 35 35 35 34 34 33 33 32 32 32 32 32 32 33 33 33 33 33 33 33 33 33 33 33 33 34 34 35 35 36 37 38 39 40
44 43 42 42 41 41 41 40 40 39 39 38 38 38 37 37 37 36 36 36 36 36 36 36 36 35 35 35 34 34 34 33 33 32 32 32 32 32 31 31 30 30 30 30 30 31 31 31 31 31 32 32 33 33 34 35 36 36 37 38 38 38 37 37 36 36 35 35 34 34 34 34 33 33 32 31 31 31 31 31 31 32 32 32 33 33 33 32 32 32 32 32 32 33 33 33 33 34 34 35 35 37 38
44 43 43 42 42 41 41 41 40 40 39 38 38 38 37 37 37 36 36 36 35 35 35 35 35 35 35 34 34 34 33 33 32 32 32 32 32 31 31 30 30 30 30 30 31 31 31 31 31 31 32 32 33 34 34 35 36 36 37 37 37 36 35 35 34 34 33 33 33 33 33 33 32 32 31 31 30 30 31 31 31 31 32 32 32 32 32 32 32 32 32 32 33 33 33 33 33 33 33 33 34 35 36
44 43 43 42 42 42 41 41 40 40 39 38 38 38 37 37 36 36 36 35 35 35 35 35 35 35 34 34 34 34 33 33 32 32 32 31 31 31 30 30 30 30 30 31 31 31 31 31 31 32 32 33 33 34 34 35 35 36 36 36 35 34 33 32 32 31 31 31 31 32 31 31 31 30 30 30 30 30 31 31 31 31 31 31 31 31 31 31 32 32 32 33 33 33 33 33 34 34 34 34 34 34 35
44 43 43 42 42 42 42 41 40 40 39 38 38 37 37 37 36 36 35 35 35 35 35 34 34 34 34 34 34 33 33 32 32 32 31 31 31 30 30 30 30 30 31 31 31 32 32 32 32 32 32 33 34 34 34 35 35 35 35 34 33 32 31 30 29 29 29 30 30 30 30 30 30 30 30 30 30 31 31 31 31 31 31 31 31 31 31 31 32 32 33 33 34 34 34 34 34 35 35 35 35 35 35
44 43 43 42 42 42 41 41 40 40 39 38 38 37 37 36 36 35 35 35 34 34 34 34 34 33 33 33 33 33 33 32 32 31 31 31 31 30 30 30 30 30 31 31 32 32 32 32 32 32 33 33 34 34 34 34 34 34 33 32 30 29 28 28 27 28 28 28 28 28 29 29 29 29 29 30 30 31 31 31 31 31 31 31 31 31 32 32 32 33 33 34 34 35 35 35 36 36 36 37 37 36 36
43 43 42 42 42 42 41 41 40 39 39 38 38 37 37 36 36 35 35 34 34 34 33 34 33 33 33 33 33 33 32 32 31 31 31 31 30 30 30 30 30 31 31 32 32 32 32 32 32 33 33 33 33 34 33 33 33 32 31 30 28 27 27 26 26 26 27 27 27 27 27 28 28 29 29 30 30 30 31 31 31 31 31 32 32 32 32 33 33 34 34 35 35 36 36 37 37 37 38 38 38 38 38
43 42 42 42 42 41 41 40 40 39 38 38 37 37 36 36 35 35 34 34 33 33 33 33 33 33 33 33 33 32 32 31 31 31 31 30 30 30 30 30 31 31 31 32 32 32 32 32 32 33 33 33 33 33 33 32 32 31 29 28 27 26 26 25 25 25 26 26 26 26 27 27 28 28 29 29 30 30 30 31 31 31 32 32 32 33 33 34 34 35 35 36 37 37 38 38 38 39 39 39 39 39 39
43 42 42 42 41 41 41 40 39 39 38 37 37 36 36 35 35 34 34 33 33 32 32 32 32 33 33 32 32 32 31 31 31 31 31 30 30 30 30 31 31 31 32 32 32 32 32 32 33 33 33 33 33 32 32 31 30 29 28 27 26 25 25 25 25 25 25 25 25 26 26 27 27 28 28 29 29 30 30 30 31 31 32 32 33 33 34 35 35 36 37 37 38 38 39 39 40 40 40 40 41 41 41
42 42 41 41 41 40 40 39 39 38 37 37 36 36 35 35 34 33 33 33 32 32 32 32 32 32 32 32 32 31 31 31 31 30 30 30 30 31 31 31 31 32 32 32 33 33 32 32 33 33 33 32 32 32 31 30 29 28 26 26 25 25 25 25 25 25 25 25 25 25 26 26 27 27 28 28 29 29 30 30 31 32 32 33 33 34 35 35 36 37 37 38 39 39 40 41 41 41 41 42 42 42 42
42 41 41 41 40 40 39 39 38 37 37 36 36 35 35 34 33 33 33 32 32 32 32 32 32 32 32 32 31 31 31 30 30 30 30 30 31 31 31 32 32 32 32 33 33 33 33 33 33 33 32 32 32 31 30 29 28 26 26 25 25 25 25 25 25 25 25 25 25 25 25 26 26 27 27 28 28 29 30 31 31 32 32 33 34 34 35 36 36 37 38 39 39 40 41 41 42 42 43 43 43 43 43
41 41 40 40 39 39 38 38 37 37 36 36 35 34 34 33 33 32 32 32 32 31 31 31 31 32 32 31 31 30 30 30 30 30 30 31 31 31 32 32 32 32 33 33 33 33 33 33 32 32 32 32 31 30 29 28 27 26 25 25 25 24 25 25 25 24 24 24 25 25 25 26 26 26 27 27 28 29 30 30 31 32 33 33 34 35 35 36 37 38 38 39 40 41 41 42 42 43 43 43 44 44 44
41 40 40 39 39 38 38 37 37 36 36 35 34 34 33 33 32 32 32 31 31 31 31 31 31 31 31 31 30 30 30 30 30 30 30 31 31 32 32 32 32 33 33 33 33 33 33 33 32 32 32 31 31 30 28 27 26 25 25 24 24 24 24 25 25 24 24 24 25 25 25 25 26 26 27 28 28 29 30 30 31 32 32 33 34 35 35 36 37 38 38 39 40 41 41 42 43 43 43 44 44 45 45
40 40 39 39 38 37 37 36 36 35 35 34 34 33 33 32 32 32 31 31 31 31 31 31 31 31 30 30 30 29 29 29 29 30 30 31 31 32 32 33 32 32 33 33 33 33 33 33 32 32 32 31 30 29 28 26 25 25 24 24 24 24 24 25 25 25 24 25 25 25 25 26 26 27 27 28 28 29 30 30 31 32 32 33 34 35 35 36 37 38 38 39 40 41 41 42 43 43 44 44 45 45 46
40 39 38 38 37 37 36 36 35 35 34 34 33 33 32 32 31 31 31 31 31 31 31 31 31 30 30 29 29 29 29 29 29 29 30 31 31 32 32 32 32 32 32 32 33 33 33 33 33 32 31 31 30 29 27 26 25 24 24 24 24 24 24 25 25 25 25 25 25 25 26 26 26 27 28 28 29 30 30 31 32 32 33 34 35 36 36 37 38 39 39 40 40 41 42 43 43 44 45 45 46 46 47
39 38 38 37 36 36 35 35 34 34 34 33 32 32 32 31 31 31 31 31 31 30 30 30 30 30 29 29 29 29 29 29 29 29 29 30 31 31 32 32 32 32 32 32 33 34 34 33 33 32 31 31 29 28 26 25 24 24 24 24 24 24 25 25 25 25 25 25 26 26 26 27 27 28 28 29 30 31 31 32 33 34 35 36 36 37 38 39 39 40 40 41 42 42 43 44 44 45 45 46 47 47 48
38 38 37 36 36 35 35 34 34 33 33 32 32 31 31 31 31 31 30 30 30 30 30 30 30 29 29 29 29 29 29 29 29 29 29 30 30 31 31 32 32 32 32 32 33 34 34 34 33 33 32 31 29 28 26 25 24 24 24 24 24 25 25 25 26 26 26 26 26 27 27 27 28 29 29 30 31 32 32 33 34 35 36 37 37 38 39 40 40 41 42 42 43 44 44 45 45 46 46 47 48 48 49
37 37 36 35 35 35 34 34 33 33 32 32 31 31 31 31 30 30 30 30 30 30 30 30 29 29 29 28 28 28 28 28 28 29 29 29 29 30 30 31 31 32 32 32 32 33 34 35 34 33 32 31 30 28 27 25 24 24 24 24 24 25 25 26 26 26 27 27 27 27 28 28 29 30 30 31 32 33 33 34 35 36 37 37 38 39 39 40 41 42 43 43 44 45 46 46 47 47 47 48 49 49 50
36 36 35 35 34 34 33 33 32 32 32 31 31 31 30 30 30 30 30 30 30 30 30 30 29 29 28 28 28 28 28 28 28 28 29 29 29 29 29 30 31 31 32 32 32 33 34 35 35 34 33 32 31 29 27 26 25 24 24 24 24 25 25 26 26 27 27 27 28 28 29 29 30 31 31 32 33 34 34 35 36 36 37 38 39 39 40 40 41 42 43 44 45 46 47 47 48 48 48 49 50 50 51
35 35 34 34 34 33 33 32 32 31 31 31 31 30 30 30 30 30 30 30 30 30 30 29 29 29 28 28 28 28 28 28 28 28 28 28 28 28 28 29 30 31 31 32 31 32 33 34 34 34 33 32 31 30 28 27 25 24 24 24 24 25 25 26 27 27 28 28 28 29 29 30 31 31 32 33 33 34 35 35 36 37 38 38 39 40 40 41 42 43 44 45 45 46 47 47 48 49 49 50 50 51 52
34 34 34 33 33 32 32 32 31 31 31 30 30 30 30 30 30 30 30 30 30 30 30 29 29 29 28 28 28 28 28 28 28 28 28 28 28 28 28 28 29 30 30 31 31 31 32 33 33 34 33 33 32 30 29 27 26 25 24 24 24 25 25 26 27 27 28 29 29 29 30 31 31 32 33 33 34 34 35 36 37 37 38 39 39 40 41 42 42 43 44 45 45 46 47 48 48 49 50 51 51 52 53
34 33 33 32 32 32 32 31 31 31 30 30 30 30 30 30 29 29 30 30 30 30 29 29 29 28 28 28 28 28 28 28 28 28 27 27 27 27 28 28 28 29 29 30 30 31 31 32 32 33 33 33 32 31 30 28 27 26 25 24 24 24 25 26 27 27 28 29 29 30 30 31 32 32 33 33 34 35 35 36 37 37 38 39 39 40 41 42 43 43 44 45 45 46 47 48 49 50 50 51 52 53 54
33 32 32 32 32 31 31 31 31 30 30 30 30 30 29 29 29 29 29 30 30 30 29 29 29 28 28 28 28 28 27 27 27 27 27 27 27 27 27 28 28 29 29 29 29 29 30 30 30 31 32 33 33 31 30 29 28 27 25 25 24 24 25 26 26 27 28 28 29 30 30 31 32 32 33 33 34 35 35 36 37 37 38 39 39 40 41 42 42 43 44 45 46 46 47 48 49 50 51 52 53 54 54
32 32 32 31 31 31 31 31 30 30 30 30 29 29 29 29 29 29 30 30 30 30 29 29 29 28 28 28 28 27 27 27 27 27 26 26 27 27 27 27 28 28 28 28 28 28 28 27 28 29 30 31 32 32 31 30 29 28 26 25 25 25 25 26 26 27 28 28 29 30 30 31 32 32 33 33 34 34 35 36 36 37 38 38 39 40 40 41 42 43 44 45 46 47 48 49 50 51 52 53 54 54 55
31 31 31 31 31 31 31 30 30 30 30 29 29 29 29 29 29 30 30 30 30 29 29 29 29 28 28 28 27 27 27 26 26 26 26 25 26 27 27 27 28 28 28 28 28 27 27 26 26 26 27 28 30 31 31 31 30 29 28 27 26 25 25 26 26 27 27 28 29 30 30 31 31 32 32 33 33 34 35 35 36 37 37 38 39 39 40 41 41 42 44 45 46 47 48 49 50 51 52 53 54 55 55
31 31 31 31 31 31 30 30 30 29 29 29 29 29 29 29 30 30 30 30 30 29 29 29 29 28 28 28 27 27 26 26 25 25 25 25 26 26 27 27 28 28 28 28 27 27 26 26 25 25 25 26 27 28 30 30 30 30 29 28 27 26 26 26 26 27 27 28 29 29 30 30 31 31 32 32 33 33 34 35 36 36 37 38 38 39 39 40 41 43 44 45 46 48 49 50 51 52 53 53 54 54 55
Wind_Direction
273 274 275 275 276 276 276 276 277 277 277 277 278 279 280 280 280 279 276 271 266 263 261 260 260 260 260 260 260 260 260 260 260 261 261 262 263 264 264 265 266 267 269 270 272 273 273 274 275 276 276 277 277 277 278 278 278 278 278 278 278 278 278 278 278 277 277 277 277 276 276 275 274 274 273 273 273 273 273 273 272 272 271 271 270 270 270 270 270 269 269 269 269 269 269 269 269 269 269 269 269 269 269
273 274 274 275 275 276 276 276 276 277 277 277 278 279 280 280 280 278 275 270 266 262 260 259 259 260 260 260 260 260 260 260 260 261 261 262 263 264 265 265 266 267 269 271 272 273 274 275 276 276 277 278 278 278 278 279 279 279 279 279 279 279 279 278 278 277 277 277 277 276 276 275 275 274 273 273 272 272 272 272 272 271 271 270 270 269 269 269 269 269 269 268 268 268 268 268 268 268 268 268 268 268 268
273 274 274 275 275 275 276 276 276 277 277 277 278 279 279 280 279 278 274 270 265 262 260 259 259 259 260 260 260 260 260 260 260 261 261 262 263 264 265 265 267 268 269 271 272 273 274 275 276 277 278 278 279 279 279 279 279 279 279 279 279 279 279 279 278 278 277 277 277 277 276 275 275 274 273 272 272 272 272 271 271 270 270 269 269 269 269 268 268 268 268 268 268 268 268 268 268 268 268 268 268 268 268
273 273 274 274 275 275 275 276 276 276 277 277 278 278 279 279 279 277 273 269 265 261 259 259 259 259 259 260 260 260 260 260 261 261 262 262 263 264 265 266 267 268 269 271 272 273 274 275 276 277 278 279 280 280 280 280 280 280 279 279 279 279 279 279 278 278 277 277 277 277 276 276 275 274 273 273 272 272 271 271 270 270 269 269 269 268 268 268 268 268 268 267 267 267 267 267 267 267 267 268 268 268 268
273 273 273 274 274 274 275 275 276 276 276 277 277 278 279 279 278 276 272 268 264 261 259 259 259 259 260 260 260 260 261 261 261 261 262 262 263 264 265 266 267 268 270 271 272 273 275 276 276 277 278 279 280 280 281 281 280 280 280 279 279 279 279 279 278 278 277 277 277 276 276 276 275 274 273 273 272 272 271 271 270 270 269 269 268 268 267 267 267 267 267 267 267 267 267 267 267 267 267 267 268 268 268
272 272 273 273 274 274 274 275 275 275 276 276 277 278 278 279 277 275 271 267 264 261 260 259 259 259 260 260 260 260 261 261 261 261 262 262 263 264 265 266 267 269 270 272 273 274 275 276 277 277 278 279 280 280 280 281 281 281 280 280 279 279 278 278 278 277 277 276 276 276 276 275 275 274 273 273 272 272 271 271 270 270 269 268 268 267 267 267 267 267 267 267 267 267 267 267 267 267 267 268 268 268 268
272 272 272 273 273 273 274 274 274 275 275 276 277 278 278 278 277 274 271 267 264 261 260 260 259 260 260 260 260 260 261 261 261 261 262 263 263 264 266 267 268 269 271 272 273 274 275 276 277 278 278 279 279 280 280 280 281 281 280 280 280 279 278 278 277 277 276 276 275 275 275 275 274 274 273 272 272 271 271 270 270 269 269 268 268 267 267 267 267 267 267 267 267 267 267 267 267 267 267 267 268 268 268
271 271 272 272 272 273 273 273 274 274 275 276 277 277 278 277 276 274 270 267 264 262 260 260 260 260 260 260 260 260 260 260 261 261 262 263 263 265 266 267 268 270 271 272 274 275 276 277 277 278 278 279 279 279 280 280 280 280 280 280 280 279 279 278 277 276 276 275 275 274 274 274 274 273 273 272 272 271 270 270 270 269 269 268 268 267 267 267 267 267 267 267 267 267 267 267 267 267 267 267 268 268 268
270 270 271 271 272 272 273 273 273 274 275 275 276 277 277 277 276 273 270 266 264 262 261 261 261 261 261 261 261 260 260 260 260 261 261 262 264 265 266 267 269 270 271 273 274 275 277 278 278 279 279 279 280 280 280 280 280 281 280 280 280 280 279 278 277 277 276 275 274 274 273 273 273 273 272 272 271 271 270 270 269 269 269 268 268 267 267 267 267 267 267 267 267 267 267 268 268 268 268 268 268 268 268
269 270 270 271 271 271 272 273 273 274 275 275 276 277 277 276 275 273 269 266 264 262 261 261 261 261 261 261 261 261 260 260 260 261 261 262 263 264 266 267 268 270 271 273 275 276 277 278 279 280 280 280 281 281 281 281 281 281 281 281 280 280 279 279 278 277 276 275 274 273 273 272 272 272 272 271 271 271 270 270 269 269 268 268 268 268 267 267 267 267 267 267 267 268 268 268 268 268 268 268 268 268 268
269 269 270 270 271 271 272 272 273 274 275 275 276 276 277 276 275 272 269 266 264 262 261 262 262 262 262 261 261 261 260 260 260 261 261 262 263 264 265 267 268 270 272 274 276 277 278 279 280 281 282 282 282 282 282 282 282 282 282 281 281 280 280 279 278 277 276 275 274 273 272 272 271 271 271 271 270 270 270 269 269 269 268 268 268 268 268 268 268 268 268 268 268 268 268 268 268 268 268 268 268 268 268
268 269 269 270 270 271 272 272 273 274 275 275 276 276 276 276 274 272 269 266 264 262 262 262 262 262 262 262 261 261 260 260 260 261 261 262 263 264 265 267 269 271 273 275 277 278 279 280 281 282 283 283 284 284 284 284 283 283 283 282 282 281 280 280 279 278 277 276 274 273 272 272 271 270 270 270 269 269 269 269 269 269 268 268 268 268 268 268 268 268 268 268 269 269 269 269 269 269 268 268 268 268 267
268 269 269 270 270 271 272 272 273 274 274 275 276 276 276 275 274 272 269 266 263 262 262 262 262 262 262 261 261 261 260 260 260 261 261 262 263 265 266 268 270 272 274 276 278 279 280 281 282 283 283 284 284 284 284 284 284 284 283 283 282 281 281 280 279 278 277 276 275 274 273 272 271 270 270 269 269 269 269 268 268 268 268 268 268 268 268 269 269 269 269 269 269 269 269 269 269 269 269 268 268 267 267
268 268 269 269 270 271 271 272 273 273 274 275 275 276 276 275 274 271 268 266 263 262 262 262 262 262 262 261 261 260 260 260 260 261 262 263 264 265 267 269 271 273 275 277 278 279 280 281 282 283 283 284 284 284 284 284 284 284 284 283 283 282 281 281 280 279 278 277 275 274 273 272 271 270 269 269 269 268 268 268 268 268 268 268 268 268 268 269 269 269 269 270 270 270 270 270 270 270 269 269 268 267 267
267 268 269 269 270 270 271 272 272 273 274 274 275 275 275 274 273 271 268 265 263 262 262 262 262 262 262 261 261 260 260 260 260 261 262 263 264 266 268 270 272 274 276 277 278 279 280 281 282 283 284 284 284 284 285 285 285 285 285 284 284 283 282 282 281 280 279 277 276 275 274 272 271 270 270 269 269 269 268 268 268 268 268 268 268 268 268 269 269 269 270 270 270 270 270 270 270 270 269 269 268 267 267
267 268 268 269 269 270 271 271 272 273 273 274 274 274 275 274 273 271 268 265 263 262 262 262 262 262 262 261 261 260 260 260 260 261 262 263 265 266 268 270 272 274 276 277 278 279 281 282 283 283 284 284 285 285 286 286 286 286 286 286 285 285 284 283 282 281 280 279 278 276 275 274 272 271 271 270 269 269 269 269 268 268 268 268 268 268 269 269 269 269 270 270 270 271 271 271 270 270 269 269 268 268 267
267 267 268 269 269 270 270 271 272 272 272 273 273 274 274 274 272 270 268 265 263 262 262 262 262 262 262 261 261 260 260 260 260 261 262 263 265 267 269 270 272 274 276 277 279 280 281 282 283 284 285 285 286 286 287 287 287 287 287 287 287 286 286 285 284 283 282 281 280 278 277 275 274 273 272 271 271 270 270 269 269 269 269 269 269 269 269 269 269 269 269 270 270 271 271 271 270 270 269 269 268 268 267
267 267 268 268 269 269 270 271 271 271 272 272 273 273 273 273 272 270 268 265 263 262 261 262 262 262 262 261 260 260 260 260 260 261 262 264 265 267 268 270 272 274 276 278 279 281 282 283 284 285 286 287 287 288 288 288 289 289 289 289 289 288 287 287 286 285 284 282 281 280 279 278 276 275 274 273 272 272 271 271 271 270 270 270 270 270 270 269 269 269 269 269 270 270 270 270 270 269 269 268 268 268 267
266 267 267 268 268 269 270 270 270 271 271 271 272 272 273 273 272 271 268 266 263 262 262 261 261 261 261 261 260 260 260 260 261 261 263 264 265 267 268 270 272 274 276 278 280 282 283 284 285 286 287 288 289 289 290 290 290 291 291 291 290 290 289 289 288 287 285 284 283 282 281 280 279 278 277 276 275 274 274 273 273 272 272 272 272 271 271 271 270 270 270 270 270 270 270 270 269 269 269 268 268 268 268
266 267 267 268 268 269 269 270 270 270 271 271 271 272 272 273 272 271 269 266 264 262 262 261 261 261 261 260 260 259 259 260 261 262 263 264 265 267 268 270 272 275 277 279 280 282 283 285 286 287 288 289 290 290 291 292 292 293 293 293 293 292 291 291 290 289 288 286 285 284 283 282 281 280 279 278 278 277 276 276 276 275 275 274 274 273 273 272 272 271 271 270 270 270 269 269 269 269 268 268 268 268 268
266 267 267 268 268 268 269 269 270 270 270 270 271 271 272 272 272 271 269 267 264 263 262 261 261 261 260 260 259 259 260 260 261 262 263 264 266 267 269 271 273 275 277 279 281 282 284 285 286 288 289 290 291 291 292 293 294 294 295 295 295 294 294 293 292 291 289 288 287 286 285 284 283 282 282 281 280 280 279 278 278 278 277 276 276 275 275 274 273 273 272 271 271 270 269 269 268 268 268 268 268 268 268
266 266 267 267 268 268 269 269 269 270 270 270 270 271 271 272 272 271 270 267 265 263 262 262 261 261 260 260 259 259 260 260 261 262 264 265 266 267 269 271 273 275 277 279 281 283 284 286 287 288 289 290 291 292 293 294 295 295 296 296 296 296 295 294 293 292 291 290 289 288 287 286 285 284 283 283 282 281 281 280 280 279 279 278 277 277 276 275 275 274 273 272 272 271 270 269 268 268 268 268 267 267 267
266 266 267 267 268 268 269 269 269 269 270 270 270 270 271 271 271 271 270 268 265 264 262 262 261 261 260 260 259 259 260 260 261 263 264 265 267 268 270 271 273 275 277 279 281 283 284 286 287 289 290 291 292 293 294 295 295 296 296 297 297 296 296 295 293 292 291 290 289 288 287 287 286 285 284 284 283 282 281 281 280 280 279 278 278 277 277 276 275 274 274 273 272 271 270 269 268 268 267 267 267 266 266
266 266 266 267 267 268 268 269 269 269 270 270 270 270 270 271 271 271 270 268 266 264 263 262 262 261 261 260 260 260 260 261 262 263 264 265 267 268 270 272 273 275 277 279 281 283 284 286 287 289 290 292 293 294 294 295 296 296 296 296 296 296 295 294 293 292 291 290 289 288 288 287 286 285 285 284 283 282 282 281 280 280 279 278 278 277 277 276 275 274 274 273 272 271 270 270 269 268 267 266 266 266 265
265 266 266 266 267 268 268 269 269 269 270 270 270 270 270 271 271 271 270 268 266 265 263 263 262 262 261 261 260 260 260 261 262 263 264 265 267 268 270 272 273 275 277 279 281 283 284 286 288 289 291 292 293 294 295 295 296 296 296 295 295 294 294 293 292 291 290 289 288 288 287 286 286 285 284 284 283 282 282 281 280 280 279 278 278 277 277 276 275 275 274 273 272 272 271 270 269 268 267 267 266 265 265
265 265 266 266 267 268 268 269 269 269 270 270 270 270 270 271 271 271 270 269 267 265 264 263 262 262 261 261 260 260 261 261 262 263 264 266 267 268 270 272 273 275 277 279 281 283 284 286 288 290 291 292 293 294 294 295 295 295 295 294 294 293 292 291 290 289 289 288 287 286 286 286 285 285 284 283 283 282 281 280 280 279 279 278 277 277 276 276 275 275 274 274 273 272 271 271 270 269 268 267 266 266 265
265 265 266 266 267 267 268 268 269 269 270 270 270 271 271 271 271 271 270 269 267 266 264 263 263 262 262 261 261 260 261 261 262 263 264 266 267 269 270 271 273 275 277 279 281 283 285 286 288 290 291 292 293 294 294 294 294 294 294 293 293 292 291 291 289 289 288 287 286 286 285 285 284 284 283 283 282 281 281 280 279 279 278 278 277 277 276 276 275 275 275 274 273 273 272 271 270 270 269 268 267 267 266
265 265 265 266 266 267 268 268 269 269 270 270 271 271 271 272 272 271 271 269 268 266 265 264 263 262 262 261 261 260 261 261 262 263 264 266 267 269 270 271 273 275 277 279 280 283 285 286 288 290 291 292 293 293 293 294 293 293 293 292 292 291 291 290 289 288 287 287 286 285 285 285 284 284 283 283 282 281 281 280 279 279 278 278 277 277 276 276 276 275 275 274 274 273 273 272 271 271 270 269 268 267 267
265 265 265 266 266 267 267 268 268 269 269 270 270 271 271 272 272 272 271 270 268 266 265 264 263 262 262 261 261 260 261 261 262 263 264 266 267 269 270 271 273 274 276 278 280 282 284 286 288 290 291 292 292 293 293 293 293 292 292 292 292 291 290 290 289 288 287 287 286 286 286 285 285 285 284 283 283 282 281 281 280 279 279 278 278 277 277 276 276 275 275 275 274 274 273 272 272 271 270 269 269 268 267
264 265 265 265 266 266 267 267 268 268 269 270 270 271 271 272 272 272 271 270 268 267 265 264 263 262 262 261 260 260 260 261 261 262 264 265 267 268 269 271 272 274 276 278 280 282 284 286 288 289 290 291 292 292 292 292 292 292 292 292 292 291 290 290 289 288 288 287 287 286 286 286 286 286 285 284 284 283 282 281 281 280 280 279 279 278 278 277 276 276 275 275 274 274 273 272 271 271 270 269 269 268 267
264 264 265 265 266 266 267 267 268 268 269 269 270 271 271 272 273 273 272 270 268 267 265 264 263 262 261 261 260 260 260 260 260 261 263 264 266 268 269 271 272 274 276 278 280 282 284 286 288 289 290 291 291 292 292 292 292 293 293 293 292 292 291 290 289 288 288 287 287 287 287 287 287 287 286 285 284 284 283 282 282 281 281 280 280 279 278 278 277 276 275 274 274 273 272 272 271 270 270 269 268 268 267
264 264 264 265 265 266 266 267 267 268 268 269 269 270 271 272 273 273 272 270 269 267 265 264 263 262 261 261 260 260 259 259 260 261 262 264 265 267 268 270 272 274 276 278 280 282 284 285 287 289 290 291 291 292 292 293 293 293 293 293 293 292 291 290 289 288 287 287 287 287 287 287 287 287 287 286 285 284 283 283 282 282 281 281 280 280 279 278 277 276 275 274 273 273 272 271 271 270 270 269 269 268 267
264 264 264 265 265 266 266 266 267 267 268 268 269 270 271 271 272 272 272 270 269 267 265 264 263 262 261 260 260 259 259 259 259 260 261 263 265 266 268 269 271 273 275 277 279 281 283 285 287 288 290 291 291 292 293 293 294 294 294 294 293 292 291 290 289 288 287 286 286 286 287 287 287 287 286 285 284 284 283 283 282 282 282 281 281 280 279 278 277 276 275 274 274 273 272 272 271 271 270 270 269 268 268
264 264 264 265 265 265 266 266 267 267 268 268 269 269 270 271 271 272 271 270 269 267 266 264 263 262 261 260 259 259 258 258 259 260 261 262 264 266 267 269 271 273 275 276 278 280 282 284 286 288 289 291 292 292 293 293 294 294 294 293 293 292 291 290 288 287 286 286 285 286 287 287 287 287 286 285 284 283 283 282 282 282 281 281 280 280 279 278 277 276 276 275 274 273 273 273 272 272 271 270 270 269 269
264 264 264 265 265 265 265 266 266 267 267 268 268 269 269 270 271 271 271 270 268 267 265 264 263 262 260 259 259 258 257 258 258 259 261 262 263 265 266 268 270 272 274 276 278 280 282 284 285 287 289 290 291 292 293 293 293 294 294 294 293 292 291 290 289 287 286 285 285 286 286 287 287 286 285 284 283 283 282 282 282 282 281 281 280 279 278 278 277 276 276 275 275 274 274 273 273 273 272 271 271 270 269
264 264 264 264 265 265 265 266 266 266 267 267 268 268 269 269 270 270 270 269 268 266 265 264 262 261 260 259 258 257 257 257 258 259 260 261 263 264 265 267 269 271 273 275 277 279 281 283 285 287 288 290 291 292 292 293 294 294 294 294 294 293 292 290 289 287 286 285 285 286 286 287 287 286 285 284 283 282 282 282 281 281 281 280 280 279 278 277 277 276 276 275 275 275 275 275 274 274 273 273 272 271 270
264 264 264 264 264 265 265 265 266 266 266 267 267 267 268 268 269 269 269 268 267 266 264 263 261 260 259 258 257 256 256 256 257 258 259 261 262 263 265 267 269 271 272 274 276 278 280 282 284 286 288 289 291 292 292 293 294 295 295 295 294 293 292 290 289 287 286 285 285 286 286 287 287 286 285 284 283 283 282 282 281 281 280 280 279 279 278 277 277 276 276 276 276 277 277 277 277 277 276 275 274 273 272
264 264 264 264 264 264 265 265 265 266 266 266 266 267 267 268 268 268 268 267 266 265 263 262 260 259 258 257 256 256 256 256 257 258 259 260 261 263 265 267 269 270 272 274 276 278 280 282 284 286 287 289 290 292 292 294 295 295 296 295 294 293 292 290 288 287 286 285 285 286 286 286 286 286 285 284 284 283 283 282 282 281 281 280 279 279 278 277 277 277 277 278 279 279 280 280 281 281 281 280 279 278 276
263 264 264 264 264 264 264 264 265 265 265 265 266 266 267 267 267 267 267 266 265 264 262 261 259 258 257 256 256 255 255 256 256 257 258 260 261 263 264 266 268 270 272 274 275 277 279 281 284 286 288 289 290 292 293 295 296 297 297 296 295 293 292 290 288 286 285 285 285 285 286 286 286 285 285 284 284 284 284 283 283 282 281 281 280 279 278 278 278 279 279 280 281 282 283 284 284 285 285 285 284 283 281
263 263 263 263 263 263 264 264 264 264 264 265 265 266 266 266 266 266 265 265 264 262 261 259 258 257 256 255 255 255 255 256 256 257 258 260 261 263 264 266 268 270 271 273 275 277 279 281 284 286 288 290 291 293 295 296 297 298 297 296 295 293 291 289 288 286 285 285 285 285 285 285 285 284 284 284 284 284 284 284 284 283 283 282 281 280 280 280 280 280 281 282 283 284 284 285 286 286 287 286 286 285 283
263 263 263 263 263 263 263 263 263 264 264 264 264 265 265 265 265 265 264 263 262 261 259 258 257 255 254 254 254 254 255 256 257 258 259 260 261 263 264 266 267 269 271 273 274 277 279 281 284 286 288 290 292 294 296 297 298 298 297 296 294 292 291 289 287 286 285 284 284 284 284 284 283 283 283 284 284 284 284 284 284 284 283 283 282 282 282 282 282 282 283 283 284 285 285 286 286 287 287 287 286 286 285
263 263 263 263 262 262 262 262 263 263 263 263 263 264 264 264 264 263 263 261 260 259 257 256 255 254 253 253 253 254 255 256 257 258 259 260 262 263 264 266 267 269 271 273 275 277 279 282 284 287 289 291 293 295 297 298 299 298 297 295 293 291 290 288 287 285 284 284 283 283 283 283 283 283 283 283 283 283 284 284 284 284 284 284 284 284 284 284 284 285 285 285 286 286 286 286 287 287 287 287 286 286 285
262 262 262 262 262 262 262 262 262 262 262 262 262 262 263 263 262 262 261 259 258 257 255 255 254 253 253 252 253 253 255 256 257 258 259 261 262 263 265 266 268 269 271 273 275 277 280 282 285 287 289 292 294 296 298 299 298 297 296 294 292 290 289 287 286 285 284 283 283 282 282 282 282 282 283 283 283 283 283 283 283 283 284 284 285 285 286 286 287 287 287 287 287 287 287 287 287 287 287 287 286 286 285
262 262 262 261 261 261 261 261 261 261 261 261 261 261 261 261 261 260 259 258 256 255 253 253 252 252 252 252 252 253 254 256 257 258 260 261 263 264 265 266 268 270 271 273 275 278 280 283 285 288 290 292 294 296 298 298 298 296 294 292 290 289 288 286 285 284 284 283 283 282 282 282 282 282 283 283 283 283 283 283 284 284 284 285 285 286 287 287 288 288 288 289 289 289 288 288 288 287 287 287 286 286 285
262 261 261 261 261 261 261 261 260 260 260 260 260 260 260 260 259 258 257 255 254 253 251 251 250 250 250 251 252 253 254 256 257 259 260 261 263 264 265 267 268 270 271 274 276 278 280 283 285 288 290 293 295 297 298 298 296 294 291 290 288 287 286 285 284 284 283 283 283 283 283 283 283 283 284 284 284 284 284 284 285 285 285 286 286 287 287 288 288 289 289 289 289 289 289 289 289 289 288 287 287 286 286
261 261 261 261 260 260 260 260 259 259 259 259 259 259 258 258 257 256 254 253 252 251 249 249 248 249 249 250 251 253 254 256 257 259 260 262 263 264 266 267 268 270 272 274 276 278 281 283 286 288 291 293 295 297 297 296 294 291 289 287 286 285 284 284 283 283 283 283 283 283 284 284 285 285 285 285 285 285 285 286 286 286 287 287 288 288 288 289 289 289 290 290 290 290 290 290 290 289 289 289 288 287 287
261 261 260 260 260 260 259 259 258 258 258 257 257 257 256 256 255 253 252 251 250 249 248 247 247 247 248 250 251 252 254 255 257 259 260 262 263 264 266 267 269 271 273 275 277 279 281 284 287 289 292 294 295 296 296 295 292 289 286 284 284 283 283 282 282 282 282 282 283 284 284 285 286 286 286 286 286 286 286 287 287 287 288 288 288 289 289 289 290 290 290 291 291 291 291 290 290 290 290 289 289 288 288
260 260 260 260 259 259 258 258 257 257 257 256 256 255 254 253 252 251 250 249 248 247 246 246 246 247 248 249 251 252 254 255 257 259 260 262 263 265 266 268 269 271 274 276 278 280 282 285 287 290 292 294 295 295 295 293 290 286 284 282 282 281 281 281 281 281 281 282 283 284 285 286 286 286 287 287 287 287 287 287 287 288 288 288 288 289 289 289 290 290 291 291 291 291 291 291 291 290 290 290 289 289 288
260 259 259 259 258 258 257 256 256 256 255 255 254 253 253 251 250 249 248 247 246 245 245 245 245 246 247 249 251 252 254 255 257 259 261 262 264 265 266 268 270 272 275 277 279 282 284 286 288 290 292 293 294 294 293 291 287 284 281 280 280 280 280 280 280 281 281 282 283 284 285 286 287 287 288 288 288 288 288 289 289 289 289 289 289 289 289 290 290 291 291 291 292 292 292 292 291 291 291 290 290 289 288
259 259 258 258 257 256 256 255 255 254 254 253 253 252 251 249 248 247 246 245 244 244 244 244 244 245 247 248 250 252 253 255 257 259 261 263 264 266 268 269 271 273 276 279 281 283 285 286 288 290 291 292 293 293 292 289 285 282 279 278 278 279 279 279 280 281 282 283 284 285 286 287 288 288 289 290 290 291 291 292 292 292 292 291 292 292 292 292 292 293 293 293 293 293 293 293 292 292 292 291 291 290 289
258 258 257 257 256 255 254 254 253 253 252 252 251 250 248 247 246 245 244 243 243 242 242 243 244 245 246 248 249 251 253 255 257 259 261 263 265 267 269 271 273 275 277 280 282 284 285 287 288 289 291 291 292 292 291 288 284 281 279 278 278 279 279 280 282 283 284 285 286 287 288 289 290 291 292 292 293 294 294 295 295 295 294 294 294 294 294 295 295 295 295 295 295 295 294 294 294 293 293 292 292 291 291
257 257 256 255 254 254 253 252 252 251 251 250 249 248 246 245 244 243 242 242 241 241 242 242 244 245 246 247 249 250 252 255 257 259 260 263 265 267 270 273 276 278 279 282 284 286 287 288 289 290 291 292 292 292 291 289 285 282 279 278 279 280 281 282 284 285 286 287 288 289 290 292 293 294 294 295 296 296 296 297 296 296 296 296 296 296 296 296 296 296 296 296 296 296 296 296 295 295 294 294 293 293 292
256 256 255 254 253 252 251 251 250 249 248 247 246 246 245 244 243 242 241 240 240 240 241 242 243 244 246 247 248 250 252 254 256 258 260 263 265 268 271 274 278 280 282 285 288 289 290 291 291 291 292 293 294 294 293 291 287 283 281 280 280 281 283 284 286 287 288 289 291 292 293 294 295 296 297 297 297 297 297 297 297 296 296 296 296 296 297 297 297 298 298 298 298 298 297 297 297 297 296 296 295 294 293
255 254 253 252 251 250 250 249 248 247 246 245 244 244 243 242 241 240 240 239 239 240 241 241 242 244 245 247 248 250 251 253 255 258 260 263 266 269 272 275 278 281 283 287 290 292 293 293 293 294 293 294 295 295 294 292 289 286 283 282 282 283 284 286 287 289 290 291 293 294 295 296 297 297 298 298 298 298 297 297 297 296 296 297 297 298 298 298 299 299 299 299 299 299 299 299 298 298 297 297 296 295 294
254 253 251 250 249 249 248 247 246 245 244 243 242 242 241 241 240 239 239 238 239 239 240 241 242 243 245 246 248 249 251 253 255 257 260 263 266 269 273 276 279 282 285 288 291 293 294 294 294 294 294 294 294 295 294 292 290 287 285 283 283 284 285 287 289 290 291 293 294 296 297 297 298 298 298 298 298 298 297 297 297 297 298 298 299 299 300 300 300 300 301 301 301 301 301 300 300 299 299 298 297 296 295
252 251 250 249 248 247 246 245 244 243 242 241 240 240 240 239 239 238 238 238 238 239 239 241 242 243 244 246 247 249 251 253 255 257 259 263 266 269 273 277 281 285 288 290 292 294 295 296 296 296 295 294 294 295 295 293 291 289 287 285 285 285 287 288 289 291 292 294 295 296 297 297 297 297 297 297 298 298 298 298 298 299 300 300 301 301 301 302 302 302 302 302 302 302 302 302 301 301 300 299 298 297 296
250 249 248 247 246 245 244 243 242 241 240 239 239 238 238 238 237 237 237 237 238 238 239 240 241 242 243 245 247 248 250 252 255 257 260 263 266 270 273 277 281 284 288 291 293 295 296 298 299 299 297 295 295 296 296 295 293 291 289 287 286 287 287 288 289 291 292 294 295 295 296 296 297 297 297 298 298 298 299 300 300 301 302 302 302 303 303 303 303 303 303 303 303 303 303 303 302 302 301 300 299 298 296
248 247 246 245 244 243 242 241 240 239 239 238 237 237 237 237 236 237 237 237 238 238 239 239 241 242 243 245 246 248 250 251 254 257 260 263 266 270 274 277 280 284 287 289 292 295 296 298 299 299 299 297 296 295 296 295 294 293 291 289 288 287 288 288 289 290 292 293 293 294 295 295 296 297 297 298 299 300 300 301 302 303 303 303 303 304 304 304 305 305 305 305 305 304 304 304 304 303 302 301 300 298 296
246 245 244 243 242 241 240 240 239 238 237 236 236 236 236 236 236 236 236 237 237 238 238 239 240 241 243 244 246 247 249 251 254 257 260 264 267 271 274 278 281 284 287 290 292 294 296 297 298 298 298 299 298 297 296 296 295 294 293 291 290 289 289 289 289 290 291 292 293 293 294 295 296 297 298 299 300 301 302 302 303 303 304 304 304 305 305 306 306 306 306 306 306 306 306 306 305 304 303 302 300 299 297
245 244 243 242 241 240 239 238 237 237 236 235 235 235 235 235 235 235 236 236 237 237 238 239 240 241 243 244 245 247 249 251 254 257 261 265 268 272 275 279 282 285 288 290 292 294 295 296 296 297 297 297 297 298 297 297 296 296 295 293 292 291 290 290 290 291 291 292 292 293 294 295 296 298 299 300 301 302 303 303 304 304 304 305 305 306 307 307 308 308 308 308 308 308 308 307 307 306 304 303 301 300 298
243 242 241 240 239 239 238 237 236 236 235 235 234 234 234 234 235 235 235 236 237 237 238 238 239 241 242 244 245 247 249 251 254 258 262 266 270 273 276 280 283 286 288 291 292 294 295 295 295 295 295 294 295 295 296 297 297 297 296 295 294 293 292 292 291 291 292 292 293 294 295 296 297 298 300 301 302 303 303 304 304 305 305 306 307 308 309 309 310 310 310 311 311 310 310 309 308 307 306 304 303 301 299